Change the Weather History Date:

Tuesday, September 10, 2013

  Actual Average Record
Temperature  
Mean Temperature 84 °F -  
Max Temperature 98 °F 85 °F 98 °F (2013)
Min Temperature 71 °F 65 °F 55 °F (2011)
Cooling Degree Days 20    
Growing Degree Days 34 (Base 50)    
Moisture  
Dew Point 72 °F    
Average Humidity 79    
Maximum Humidity 100    
Minimum Humidity 39    
Precipitation  
Precipitation 0.00 in - - ()
Sea Level Pressure  
Sea Level Pressure 30.09 in    
Wind  
Wind Speed 1 mph (ESE)    
Max Wind Speed 12 mph    
Max Gust Speed 22 mph    
Visibility 10 miles    
Events      
Averages and records for this station are not official NWS values.
T = Trace of Precipitation, MM = Missing Value Source: NWS Daily Summary

Daily Weather History Graph

Daily Weather History Graph

Search for Another Location

Airport or City:

Trip Planner

Search our weather history database for the weather conditions in past years. The results will help you decide how hot, cold, wet, or windy it might be!

Date:

Astronomy

Sep. 10, 2013 Rise Set
Actual Time 6:38 AM CDT 7:13 PM CDT
Civil Twilight 6:13 AM CDT 7:38 PM CDT
Nautical Twilight 5:42 AM CDT 8:09 PM CDT
Astronomical Twilight 5:12 AM CDT 8:39 PM CDT
Moon 11:51 AM CDT (9/10) 10:29 PM CDT (9/10)
Length of Visible Light 13h 25m
Length of Day
12h 34m
Waxing Crescent, 28% of the Moon is Illuminated
Sep 10
Waxing Crescent
Sep 12
First Quarter
Sep 19
Full
Sep 26
Last Quarter
Oct 4
New

Hourly Weather History & Observations

Time (CDT) Temp. Heat Index Dew Point Humidity Pressure Visibility Wind Dir Wind Speed Gust Speed Precip Events Conditions
12:55 AM 77.0 °F - 73.4 °F 89% 30.04 in 10.0 mi Calm Calm - N/A   Clear
1:55 AM 75.2 °F - 71.6 °F 89% 30.04 in 10.0 mi Calm Calm - N/A   Clear
2:55 AM 73.4 °F - 71.6 °F 94% 30.05 in 10.0 mi Calm Calm - N/A   Partly Cloudy
3:15 AM 73.4 °F - 71.6 °F 94% 30.05 in 10.0 mi Calm Calm - N/A   Clear
3:35 AM 73.4 °F - 71.6 °F 94% 30.06 in 10.0 mi Calm Calm - N/A   Clear
3:55 AM 73.4 °F - 71.6 °F 94% 30.06 in 10.0 mi Calm Calm - N/A   Clear
4:15 AM 73.4 °F - 71.6 °F 94% 30.06 in 10.0 mi Calm Calm - N/A   Clear
4:35 AM 73.4 °F - 71.6 °F 94% 30.07 in 10.0 mi Calm Calm - N/A   Clear
4:55 AM 73.4 °F - 71.6 °F 94% 30.07 in 10.0 mi Calm Calm - N/A   Partly Cloudy
5:15 AM 73.4 °F - 71.6 °F 94% 30.07 in 10.0 mi Calm Calm - N/A   Partly Cloudy
5:35 AM 73.4 °F - 71.6 °F 94% 30.08 in 10.0 mi Calm Calm - N/A   Partly Cloudy
5:55 AM 73.4 °F - 71.6 °F 94% 30.08 in 10.0 mi Calm Calm - N/A   Partly Cloudy
6:55 AM 71.6 °F - 71.6 °F 100% 30.10 in 10.0 mi Calm Calm - N/A   Mostly Cloudy
7:55 AM 75.2 °F - 73.4 °F 94% 30.11 in 10.0 mi East 3.5 mph - N/A   Scattered Clouds
8:55 AM 82.4 °F 88.2 °F 73.4 °F 74% 30.12 in 10.0 mi Calm Calm - N/A   Scattered Clouds
9:55 AM 87.8 °F 95.6 °F 73.4 °F 62% 30.13 in 10.0 mi SW 3.5 mph - N/A   Partly Cloudy
10:55 AM 93.2 °F 102.4 °F 73.4 °F 52% 30.13 in 10.0 mi West 3.5 mph - N/A   Partly Cloudy
11:55 AM 96.8 °F 109.6 °F 75.2 °F 50% 30.13 in 10.0 mi Calm Calm - N/A   Partly Cloudy
12:55 PM 96.8 °F 105.1 °F 71.6 °F 44% 30.12 in 10.0 mi Variable 4.6 mph - N/A   Partly Cloudy
1:55 PM 98.6 °F 105.5 °F 69.8 °F 39% 30.09 in 10.0 mi Variable 3.5 mph - N/A   Partly Cloudy
2:55 PM 98.6 °F 105.5 °F 69.8 °F 39% 30.06 in 10.0 mi Variable 4.6 mph - N/A   Partly Cloudy
3:55 PM 95.0 °F 101.3 °F 69.8 °F 44% 30.08 in 10.0 mi SE 11.5 mph 21.9 mph N/A   Mostly Cloudy
4:55 PM 82.4 °F 87.2 °F 71.6 °F 70% 30.08 in 10.0 mi ENE 4.6 mph - N/A   Mostly Cloudy
5:55 PM 82.4 °F 86.3 °F 69.8 °F 66% 30.08 in 10.0 mi ENE 5.8 mph - N/A   Mostly Cloudy
6:55 PM 82.4 °F 87.2 °F 71.6 °F 70% 30.10 in 10.0 mi ENE 8.1 mph - N/A   Mostly Cloudy
7:55 PM 78.8 °F - 73.4 °F 83% 30.12 in 10.0 mi SE 4.6 mph - N/A   Mostly Cloudy
8:55 PM 77.0 °F - 71.6 °F 83% 30.12 in 10.0 mi Calm Calm - N/A   Mostly Cloudy
9:55 PM 75.2 °F - 71.6 °F 89% 30.13 in 10.0 mi Calm Calm - N/A   Mostly Cloudy
10:55 PM 75.2 °F - 71.6 °F 89% 30.13 in 10.0 mi Calm Calm - N/A   Mostly Cloudy
11:55 PM 75.2 °F - 71.6 °F 89% 30.12 in 10.0 mi Calm Calm - N/A   Mostly Cloudy